Time,TemperatureF,DewpointF,PressureIn,WindDirection,WindDirectionDegrees,WindSpeedMPH,WindSpeedGustMPH,Humidity,HourlyPrecipIn,Conditions,Clouds,dailyrainin,SoftwareType,DateUTC
2013-02-12 00:01:00,59.0,57.0,30.02,ENE,57,5.0,12.0,94,0.00,,,0.35,,2013-02-12 06:01:00,
2013-02-12 00:12:00,59.0,57.0,30.01,NE,56,4.0,10.0,94,0.00,,,0.35,,2013-02-12 06:12:00,
2013-02-12 00:21:00,59.0,57.0,30.01,NE,56,4.0,10.0,94,0.00,,,0.35,,2013-02-12 06:21:00,
2013-02-12 00:32:00,59.0,57.0,30.02,ENE,59,3.0,8.0,94,0.00,,,0.35,,2013-02-12 06:32:00,
2013-02-12 00:42:00,59.0,57.0,30.02,ENE,58,5.0,9.0,94,0.00,,,0.35,,2013-02-12 06:42:00,
2013-02-12 00:51:00,59.0,57.0,30.02,ENE,58,5.0,9.0,94,0.00,,,0.35,,2013-02-12 06:51:00,
2013-02-12 01:01:00,59.0,57.0,30.02,ENE,58,5.0,9.0,94,0.00,,,0.35,,2013-02-12 07:01:00,
2013-02-12 01:11:00,59.0,57.0,30.02,ENE,58,5.0,9.0,94,0.00,,,0.35,,2013-02-12 07:11:00,
2013-02-12 01:21:00,59.0,57.0,30.01,ENE,78,5.0,12.0,93,0.00,,,0.35,,2013-02-12 07:21:00,
2013-02-12 01:31:00,59.0,57.0,30.01,ENE,62,3.0,10.0,93,0.00,,,0.35,,2013-02-12 07:31:00,
2013-02-12 01:42:00,59.0,57.0,30.01,ENE,62,3.0,10.0,93,0.00,,,0.35,,2013-02-12 07:42:00,
2013-02-12 01:51:00,59.0,57.0,30.01,ENE,62,3.0,10.0,93,0.00,,,0.35,,2013-02-12 07:51:00,
2013-02-12 02:01:00,59.0,57.0,29.99,NE,56,3.0,8.0,93,0.00,,,0.35,,2013-02-12 08:01:00,
2013-02-12 02:11:00,59.0,57.0,29.99,NE,56,3.0,8.0,93,0.00,,,0.35,,2013-02-12 08:11:00,
2013-02-12 02:21:00,59.0,57.0,29.99,ENE,66,5.0,8.0,93,0.00,,,0.35,,2013-02-12 08:21:00,
2013-02-12 02:32:00,60.0,58.0,29.99,NE,52,3.0,9.0,93,0.00,,,0.35,,2013-02-12 08:32:00,
2013-02-12 02:41:00,60.0,58.0,29.99,NE,52,3.0,9.0,93,0.00,,,0.35,,2013-02-12 08:41:00,
2013-02-12 02:52:00,60.0,58.0,29.99,NE,47,6.0,10.0,93,0.00,,,0.35,,2013-02-12 08:52:00,
2013-02-12 03:01:00,60.0,58.0,30.00,NNE,24,3.0,10.0,93,0.00,,,0.35,,2013-02-12 09:01:00,
2013-02-12 03:11:00,60.0,58.0,30.00,NNE,24,3.0,10.0,93,0.00,,,0.35,,2013-02-12 09:11:00,
2013-02-12 03:21:00,60.0,58.0,30.00,NE,36,6.0,10.0,92,0.00,,,0.35,,2013-02-12 09:21:00,
2013-02-12 03:32:00,59.0,57.0,29.98,NE,39,5.0,10.0,92,0.00,,,0.35,,2013-02-12 09:32:00,
2013-02-12 03:42:00,59.0,57.0,29.98,NE,39,5.0,10.0,92,0.00,,,0.35,,2013-02-12 09:42:00,
2013-02-12 03:51:00,59.0,57.0,29.98,NE,39,5.0,10.0,92,0.00,,,0.35,,2013-02-12 09:51:00,
2013-02-12 04:01:00,59.0,57.0,29.97,NE,45,3.0,12.0,93,0.00,,,0.35,,2013-02-12 10:01:00,
2013-02-12 04:11:00,59.0,57.0,29.97,NE,45,3.0,12.0,93,0.00,,,0.35,,2013-02-12 10:11:00,
2013-02-12 04:21:00,59.0,57.0,29.97,NE,45,3.0,12.0,93,0.00,,,0.35,,2013-02-12 10:21:00,
2013-02-12 04:31:00,59.0,57.0,29.96,NE,56,4.0,9.0,93,0.00,,,0.35,,2013-02-12 10:31:00,
2013-02-12 04:43:00,59.0,57.0,29.96,NE,56,4.0,9.0,93,0.00,,,0.35,,2013-02-12 10:43:00,
2013-02-12 04:52:00,59.0,57.0,29.96,NE,46,5.0,12.0,94,0.00,,,0.35,,2013-02-12 10:52:00,
2013-02-12 05:01:00,59.0,57.0,29.96,NE,54,5.0,12.0,94,0.00,,,0.35,,2013-02-12 11:01:00,
2013-02-12 05:11:00,59.0,57.0,29.96,NE,54,5.0,12.0,94,0.00,,,0.35,,2013-02-12 11:11:00,
2013-02-12 05:21:00,59.0,57.0,29.96,NE,54,5.0,12.0,94,0.00,,,0.35,,2013-02-12 11:21:00,
2013-02-12 05:32:00,59.0,57.0,29.96,ENE,75,4.0,12.0,94,0.00,,,0.35,,2013-02-12 11:32:00,
2013-02-12 05:41:00,59.0,57.0,29.96,ENE,75,4.0,12.0,94,0.00,,,0.35,,2013-02-12 11:41:00,
2013-02-12 05:52:00,59.0,57.0,29.95,East,80,3.0,9.0,94,0.00,,,0.35,,2013-02-12 11:52:00,
2013-02-12 06:01:00,59.0,57.0,29.95,ENE,69,3.0,7.0,94,0.00,,,0.35,,2013-02-12 12:01:00,
2013-02-12 06:11:00,59.0,57.0,29.95,ENE,69,3.0,7.0,94,0.00,,,0.35,,2013-02-12 12:11:00,
2013-02-12 06:21:00,59.0,57.0,29.95,NE,50,2.0,9.0,94,0.00,,,0.35,,2013-02-12 12:21:00,
2013-02-12 06:32:00,59.0,57.0,29.94,ENE,75,5.0,9.0,94,0.00,,,0.34,,2013-02-12 12:32:00,
2013-02-12 06:42:00,59.0,57.0,29.94,ENE,75,5.0,9.0,94,0.00,,,0.34,,2013-02-12 12:42:00,
2013-02-12 06:52:00,60.0,58.0,29.95,East,88,2.0,8.0,94,0.00,,,0.34,,2013-02-12 12:52:00,
2013-02-12 07:01:00,60.0,58.0,29.94,ESE,118,2.0,6.0,94,0.00,,,0.34,,2013-02-12 13:01:00,
2013-02-12 07:11:00,60.0,58.0,29.94,ESE,118,2.0,6.0,94,0.00,,,0.34,,2013-02-12 13:11:00,
2013-02-12 07:22:00,60.0,58.0,29.94,ESE,118,2.0,6.0,94,0.00,,,0.34,,2013-02-12 13:22:00,
2013-02-12 07:32:00,60.0,58.0,29.93,ENE,68,1.0,5.0,94,0.00,,,0.34,,2013-02-12 13:32:00,
2013-02-12 07:42:00,60.0,58.0,29.93,ENE,68,1.0,5.0,94,0.00,,,0.34,,2013-02-12 13:42:00,
2013-02-12 07:52:00,60.0,58.0,29.92,ENE,70,2.0,6.0,94,0.00,,,0.34,,2013-02-12 13:52:00,
2013-02-12 08:01:00,60.0,59.0,29.92,East,95,1.0,6.0,95,0.00,,,0.34,,2013-02-12 14:01:00,
2013-02-12 08:12:00,60.0,59.0,29.92,East,95,1.0,6.0,95,0.00,,,0.34,,2013-02-12 14:12:00,
2013-02-12 08:21:00,60.0,58.0,29.92,ENE,65,1.0,3.0,94,0.00,,,0.34,,2013-02-12 14:21:00,
2013-02-12 08:32:00,61.0,59.0,29.93,NE,50,1.0,3.0,94,0.00,,,0.34,,2013-02-12 14:32:00,
2013-02-12 08:42:00,61.0,59.0,29.93,NE,50,1.0,3.0,94,0.00,,,0.34,,2013-02-12 14:42:00,
2013-02-12 08:52:00,61.0,59.0,29.93,ENE,63,1.0,3.0,94,0.00,,,0.34,,2013-02-12 14:52:00,
2013-02-12 09:02:00,61.0,59.0,29.93,ESE,117,1.0,3.0,94,0.00,,,0.34,,2013-02-12 15:02:00,
2013-02-12 09:11:00,62.0,60.0,29.93,ENE,75,3.0,6.0,94,0.00,,,0.34,,2013-02-12 15:11:00,
2013-02-12 09:21:00,62.0,60.0,29.93,ENE,75,3.0,6.0,94,0.00,,,0.34,,2013-02-12 15:21:00,
2013-02-12 09:32:00,62.0,60.0,29.92,East,99,3.0,5.0,94,0.00,,,0.34,,2013-02-12 15:32:00,
2013-02-12 09:42:00,62.0,60.0,29.92,East,99,3.0,5.0,94,0.00,,,0.34,,2013-02-12 15:42:00,
2013-02-12 09:52:00,62.0,60.0,29.92,East,99,3.0,5.0,94,0.00,,,0.34,,2013-02-12 15:52:00,
2013-02-12 10:01:00,63.0,62.0,29.91,ESE,116,3.0,7.0,95,0.00,,,0.33,,2013-02-12 16:01:00,
2013-02-12 10:11:00,63.0,62.0,29.91,ESE,116,3.0,7.0,95,0.00,,,0.33,,2013-02-12 16:11:00,
2013-02-12 10:22:00,63.0,62.0,29.91,ESE,116,3.0,7.0,95,0.00,,,0.33,,2013-02-12 16:22:00,
2013-02-12 10:32:00,63.0,62.0,29.90,East,92,2.0,7.0,95,0.00,,,0.33,,2013-02-12 16:32:00,
2013-02-12 10:42:00,63.0,62.0,29.90,East,92,2.0,7.0,95,0.00,,,0.33,,2013-02-12 16:42:00,
2013-02-12 10:52:00,64.0,63.0,29.90,ESE,122,3.0,6.0,95,0.00,,,0.21,,2013-02-12 16:52:00,
2013-02-12 11:01:00,64.0,63.0,29.89,East,95,4.0,8.0,95,0.00,,,0.17,,2013-02-12 17:01:00,
2013-02-12 11:12:00,64.0,63.0,29.89,East,95,4.0,8.0,95,0.00,,,0.17,,2013-02-12 17:12:00,
2013-02-12 11:21:00,65.0,64.0,29.89,East,82,3.0,10.0,95,0.00,,,0.13,,2013-02-12 17:21:00,
2013-02-12 11:32:00,65.0,64.0,29.88,SE,129,3.0,9.0,95,0.00,,,0.10,,2013-02-12 17:32:00,
2013-02-12 11:42:00,65.0,64.0,29.88,SE,129,3.0,9.0,95,0.00,,,0.10,,2013-02-12 17:42:00,
2013-02-12 11:52:00,65.0,64.0,29.87,ESE,103,3.0,7.0,95,0.00,,,0.10,,2013-02-12 17:52:00,
2013-02-12 12:01:00,65.0,64.0,29.87,ESE,103,3.0,7.0,95,0.00,,,0.10,,2013-02-12 18:01:00,
2013-02-12 12:11:00,66.0,65.0,29.85,East,94,3.0,5.0,95,0.00,,,0.04,,2013-02-12 18:11:00,
2013-02-12 12:23:00,66.0,65.0,29.85,East,94,3.0,5.0,95,0.00,,,0.04,,2013-02-12 18:23:00,
2013-02-12 12:32:00,66.0,65.0,29.83,ENE,68,1.0,5.0,95,0.00,,,0.04,,2013-02-12 18:32:00,
2013-02-12 12:41:00,66.0,65.0,29.83,ENE,68,1.0,5.0,95,0.00,,,0.04,,2013-02-12 18:41:00,
2013-02-12 12:51:00,67.0,66.0,29.83,ENE,78,2.0,3.0,95,0.00,,,0.04,,2013-02-12 18:51:00,
2013-02-12 13:02:00,67.0,66.0,29.83,East,90,1.0,3.0,95,0.01,,,0.05,,2013-02-12 19:02:00,
2013-02-12 13:11:00,67.0,66.0,29.83,East,90,1.0,3.0,95,0.01,,,0.05,,2013-02-12 19:11:00,
2013-02-12 13:21:00,67.0,66.0,29.83,East,90,1.0,3.0,95,0.01,,,0.05,,2013-02-12 19:21:00,
2013-02-12 13:31:00,67.0,66.0,29.81,East,82,1.0,2.0,95,0.02,,,0.06,,2013-02-12 19:31:00,
2013-02-12 13:42:00,67.0,66.0,29.81,East,82,1.0,2.0,95,0.02,,,0.06,,2013-02-12 19:42:00,
2013-02-12 13:52:00,67.0,66.0,29.81,East,82,1.0,2.0,95,0.02,,,0.06,,2013-02-12 19:52:00,
2013-02-12 14:01:00,71.0,70.0,29.78,SW,217,2.0,12.0,96,0.01,,,0.06,,2013-02-12 20:01:00,
2013-02-12 14:11:00,71.0,70.0,29.78,SW,217,2.0,12.0,96,0.01,,,0.06,,2013-02-12 20:11:00,
2013-02-12 14:21:00,72.0,71.0,29.78,SW,235,2.0,9.0,96,0.00,,,0.06,,2013-02-12 20:21:00,
2013-02-12 14:31:00,74.0,71.0,29.78,SW,215,6.0,15.0,91,0.00,,,0.06,,2013-02-12 20:31:00,
2013-02-12 14:41:00,74.0,71.0,29.78,SW,215,6.0,15.0,91,0.00,,,0.06,,2013-02-12 20:41:00,
2013-02-12 14:52:00,75.0,72.0,29.77,SE,125,6.0,15.0,89,0.00,,,0.06,,2013-02-12 20:52:00,
2013-02-12 15:01:00,75.0,71.0,29.76,WSW,248,4.0,12.0,88,0.00,,,0.06,,2013-02-12 21:01:00,
2013-02-12 15:11:00,75.0,71.0,29.76,WSW,248,4.0,12.0,88,0.00,,,0.06,,2013-02-12 21:11:00,
2013-02-12 15:21:00,76.0,72.0,29.76,WSW,242,9.0,18.0,86,0.00,,,0.06,,2013-02-12 21:21:00,
2013-02-12 15:31:00,76.0,72.0,29.76,WSW,242,9.0,18.0,86,0.00,,,0.06,,2013-02-12 21:31:00,
2013-02-12 15:42:00,76.0,72.0,29.76,WSW,242,9.0,18.0,86,0.00,,,0.06,,2013-02-12 21:42:00,
2013-02-12 15:51:00,76.0,72.0,29.76,WSW,242,9.0,18.0,86,0.00,,,0.06,,2013-02-12 21:51:00,
2013-02-12 16:01:00,75.0,71.0,29.75,SW,223,6.0,16.0,87,0.00,,,0.05,,2013-02-12 22:01:00,
2013-02-12 16:12:00,75.0,71.0,29.75,SW,223,6.0,16.0,87,0.00,,,0.05,,2013-02-12 22:12:00,
2013-02-12 16:21:00,75.0,71.0,29.75,SW,221,6.0,17.0,87,0.00,,,0.05,,2013-02-12 22:21:00,
2013-02-12 16:32:00,74.0,70.0,29.75,WSW,257,8.0,17.0,87,0.00,,,0.05,,2013-02-12 22:32:00,
2013-02-12 16:42:00,74.0,70.0,29.75,WSW,257,8.0,17.0,87,0.00,,,0.05,,2013-02-12 22:42:00,
2013-02-12 16:51:00,74.0,70.0,29.75,West,264,7.0,18.0,88,0.00,,,0.05,,2013-02-12 22:51:00,
2013-02-12 17:01:00,74.0,70.0,29.75,SSW,212,7.0,16.0,88,0.00,,,0.05,,2013-02-12 23:01:00,
2013-02-12 17:11:00,74.0,71.0,29.75,West,270,5.0,16.0,89,0.00,,,0.05,,2013-02-12 23:11:00,
2013-02-12 17:21:00,74.0,71.0,29.75,West,270,5.0,16.0,89,0.00,,,0.05,,2013-02-12 23:21:00,
2013-02-12 17:32:00,73.0,70.0,29.76,South,186,6.0,16.0,89,0.00,,,0.05,,2013-02-12 23:32:00,
2013-02-12 17:42:00,73.0,70.0,29.76,South,186,6.0,16.0,89,0.00,,,0.05,,2013-02-12 23:42:00,
2013-02-12 17:52:00,73.0,70.0,29.76,WSW,251,5.0,14.0,89,0.00,,,0.05,,2013-02-12 23:52:00,
2013-02-12 18:02:00,73.0,70.0,29.75,SW,235,6.0,15.0,89,0.00,,,0.04,,2013-02-13 00:02:00,
2013-02-12 18:11:00,73.0,70.0,29.75,SW,235,6.0,15.0,89,0.00,,,0.04,,2013-02-13 00:11:00,
2013-02-12 18:21:00,73.0,70.0,29.75,SW,235,6.0,15.0,89,0.00,,,0.04,,2013-02-13 00:21:00,
2013-02-12 18:32:00,73.0,70.0,29.75,SW,235,6.0,15.0,89,0.00,,,0.04,,2013-02-13 00:32:00,
2013-02-12 18:42:00,73.0,70.0,29.75,SW,235,6.0,15.0,89,0.00,,,0.04,,2013-02-13 00:42:00,
2013-02-12 18:52:00,72.0,69.0,29.75,SW,225,7.0,13.0,90,0.00,,,0.02,,2013-02-13 00:52:00,
2013-02-12 19:01:00,73.0,70.0,29.76,SSW,208,6.0,13.0,89,0.00,,,0.02,,2013-02-13 01:01:00,
2013-02-12 19:11:00,73.0,70.0,29.76,SSW,208,6.0,13.0,89,0.00,,,0.02,,2013-02-13 01:11:00,
2013-02-12 19:21:00,72.0,69.0,29.77,SW,219,5.0,12.0,89,0.00,,,0.02,,2013-02-13 01:21:00,
2013-02-12 19:31:00,72.0,69.0,29.78,SSW,212,6.0,12.0,89,0.00,,,0.02,,2013-02-13 01:31:00,
2013-02-12 19:42:00,72.0,69.0,29.78,SSW,212,6.0,12.0,89,0.00,,,0.02,,2013-02-13 01:42:00,
2013-02-12 19:51:00,72.0,69.0,29.78,SSW,212,6.0,12.0,89,0.00,,,0.02,,2013-02-13 01:51:00,
2013-02-12 20:01:00,71.0,68.0,29.78,SW,217,5.0,12.0,91,0.00,,,0.02,,2013-02-13 02:01:00,
2013-02-12 20:11:00,71.0,68.0,29.78,SW,217,5.0,12.0,91,0.00,,,0.02,,2013-02-13 02:11:00,
2013-02-12 20:22:00,71.0,68.0,29.78,SW,217,5.0,12.0,91,0.00,,,0.02,,2013-02-13 02:22:00,
2013-02-12 20:31:00,71.0,68.0,29.78,WSW,241,3.0,8.0,91,0.00,,,0.02,,2013-02-13 02:31:00,
2013-02-12 20:41:00,71.0,68.0,29.78,WSW,241,3.0,8.0,91,0.00,,,0.02,,2013-02-13 02:41:00,
2013-02-12 20:52:00,71.0,68.0,29.79,SSW,200,2.0,9.0,91,0.00,,,0.02,,2013-02-13 02:52:00,
2013-02-12 21:01:00,70.0,67.0,29.78,WSW,251,3.0,8.0,91,0.00,,,0.02,,2013-02-13 03:01:00,
2013-02-12 21:11:00,70.0,68.0,29.78,SSW,207,2.0,3.0,92,0.00,,,0.02,,2013-02-13 03:11:00,
2013-02-12 21:21:00,70.0,68.0,29.78,SSW,207,2.0,3.0,92,0.00,,,0.02,,2013-02-13 03:21:00,
2013-02-12 21:32:00,70.0,67.0,29.79,SW,218,2.0,5.0,91,0.00,,,0.02,,2013-02-13 03:32:00,
2013-02-12 21:41:00,70.0,67.0,29.79,SW,218,2.0,5.0,91,0.00,,,0.02,,2013-02-13 03:41:00,
2013-02-12 21:51:00,70.0,68.0,29.79,WNW,299,3.0,8.0,92,0.00,,,0.02,,2013-02-13 03:51:00,
2013-02-12 22:01:00,70.0,67.0,29.81,NW,321,2.0,8.0,91,0.00,,,0.02,,2013-02-13 04:01:00,
2013-02-12 22:11:00,70.0,67.0,29.81,NW,321,2.0,8.0,91,0.00,,,0.02,,2013-02-13 04:11:00,
2013-02-12 22:21:00,70.0,67.0,29.81,West,271,3.0,9.0,90,0.00,,,0.02,,2013-02-13 04:21:00,
2013-02-12 22:32:00,70.0,67.0,29.81,West,271,3.0,9.0,90,0.00,,,0.02,,2013-02-13 04:32:00,
2013-02-12 22:41:00,70.0,67.0,29.81,West,271,3.0,9.0,90,0.00,,,0.02,,2013-02-13 04:41:00,
2013-02-12 22:51:00,69.0,66.0,29.81,West,271,1.0,3.0,91,0.00,,,0.02,,2013-02-13 04:51:00,
2013-02-12 23:01:00,69.0,66.0,29.80,West,269,0.0,3.0,91,0.00,,,0.02,,2013-02-13 05:01:00,
2013-02-12 23:11:00,69.0,66.0,29.80,West,269,0.0,3.0,91,0.00,,,0.02,,2013-02-13 05:11:00,
2013-02-12 23:22:00,69.0,66.0,29.80,West,269,0.0,3.0,91,0.00,,,0.02,,2013-02-13 05:22:00,
2013-02-12 23:31:00,68.0,66.0,29.82,NW,311,1.0,3.0,92,0.00,,,0.02,,2013-02-13 05:31:00,
2013-02-12 23:42:00,68.0,66.0,29.82,NW,311,1.0,3.0,92,0.00,,,0.02,,2013-02-13 05:42:00,
2013-02-12 23:52:00,68.0,66.0,29.82,NW,311,1.0,3.0,92,0.00,,,0.02,,2013-02-13 05:52:00,